Time,TemperatureF,DewpointF,PressureIn,WindDirection,WindDirectionDegrees,WindSpeedMPH,WindSpeedGustMPH,Humidity,HourlyPrecipIn,Conditions,Clouds,dailyrainin,SoftwareType,DateUTC
2013-03-30 00:02:00,39.0,34.0,30.18,North,0,0.0,0.0,83,66.77,,,-99.99,,2013-03-30 05:02:00,
2013-03-30 00:12:00,39.0,34.0,30.18,North,0,0.0,0.0,83,66.77,,,-99.99,,2013-03-30 05:12:00,
2013-03-30 00:22:00,38.0,34.0,30.17,North,0,0.0,0.0,85,66.77,,,-99.99,,2013-03-30 05:22:00,
2013-03-30 00:32:00,37.0,33.0,30.17,North,0,0.0,0.0,86,66.77,,,-99.99,,2013-03-30 05:32:00,
2013-03-30 00:42:00,37.0,33.0,30.17,North,0,0.0,0.0,86,66.77,,,-99.99,,2013-03-30 05:42:00,
2013-03-30 00:52:00,37.0,34.0,30.17,North,0,0.0,0.0,87,66.77,,,-99.99,,2013-03-30 05:52:00,
2013-03-30 01:02:00,36.0,33.0,30.17,North,0,0.0,0.0,89,66.77,,,-99.99,,2013-03-30 06:02:00,
2013-03-30 01:11:00,36.0,33.0,30.17,North,0,0.0,0.0,89,66.77,,,-99.99,,2013-03-30 06:11:00,
2013-03-30 01:22:00,36.0,33.0,30.17,North,0,0.0,0.0,89,66.77,,,-99.99,,2013-03-30 06:22:00,
2013-03-30 01:32:00,36.0,33.0,30.17,North,0,0.0,0.0,90,66.77,,,-99.99,,2013-03-30 06:32:00,
2013-03-30 01:42:00,36.0,33.0,30.17,North,0,0.0,0.0,90,66.77,,,-99.99,,2013-03-30 06:42:00,
2013-03-30 01:52:00,36.0,33.0,30.17,North,0,0.0,0.0,90,66.77,,,-99.99,,2013-03-30 06:52:00,
2013-03-30 02:02:00,36.0,33.0,30.17,North,0,0.0,0.0,90,66.77,,,-99.99,,2013-03-30 07:02:00,
2013-03-30 02:12:00,36.0,33.0,30.17,North,0,0.0,0.0,90,66.77,,,-99.99,,2013-03-30 07:12:00,
2013-03-30 02:22:00,36.0,34.0,30.17,North,0,0.0,0.0,91,66.77,,,-99.99,,2013-03-30 07:22:00,
2013-03-30 02:32:00,35.0,33.0,30.16,North,0,0.0,0.0,91,66.77,,,-99.99,,2013-03-30 07:32:00,
2013-03-30 02:42:00,35.0,33.0,30.16,North,0,0.0,0.0,91,66.77,,,-99.99,,2013-03-30 07:42:00,
2013-03-30 02:52:00,35.0,33.0,30.16,North,0,0.0,0.0,92,66.77,,,-99.99,,2013-03-30 07:52:00,
2013-03-30 03:02:00,35.0,33.0,30.16,North,0,0.0,0.0,93,66.77,,,-99.99,,2013-03-30 08:02:00,
2013-03-30 03:12:00,35.0,33.0,30.16,North,0,0.0,0.0,93,66.77,,,-99.99,,2013-03-30 08:12:00,
2013-03-30 03:21:00,34.0,32.0,30.15,North,0,0.0,0.0,94,66.77,,,-99.99,,2013-03-30 08:21:00,
2013-03-30 03:32:00,34.0,33.0,30.15,North,0,0.0,0.0,95,66.77,,,-99.99,,2013-03-30 08:32:00,
2013-03-30 03:42:00,34.0,33.0,30.15,North,0,0.0,0.0,95,66.77,,,-99.99,,2013-03-30 08:42:00,
2013-03-30 03:53:00,34.0,32.0,30.14,North,0,0.0,0.0,94,66.77,,,-99.99,,2013-03-30 08:53:00,
2013-03-30 04:02:00,34.0,33.0,30.14,North,0,0.0,0.0,95,66.77,,,-99.99,,2013-03-30 09:02:00,
2013-03-30 04:12:00,33.0,32.0,30.14,North,0,0.0,0.0,95,66.77,,,-99.99,,2013-03-30 09:12:00,
2013-03-30 04:22:00,33.0,32.0,30.14,North,0,0.0,0.0,95,66.77,,,-99.99,,2013-03-30 09:22:00,
2013-03-30 04:33:00,32.0,31.0,30.14,North,0,0.0,0.0,96,66.77,,,-99.99,,2013-03-30 09:33:00,
2013-03-30 04:42:00,32.0,31.0,30.14,North,0,0.0,0.0,96,66.77,,,-99.99,,2013-03-30 09:42:00,
2013-03-30 04:53:00,32.0,31.0,30.15,North,0,0.0,0.0,96,66.77,,,-99.99,,2013-03-30 09:53:00,
2013-03-30 05:02:00,32.0,31.0,30.15,North,0,0.0,0.0,96,66.77,,,-99.99,,2013-03-30 10:02:00,
2013-03-30 05:12:00,32.0,31.0,30.15,North,0,0.0,0.0,96,66.77,,,-99.99,,2013-03-30 10:12:00,
2013-03-30 05:23:00,32.0,31.0,30.16,North,0,0.0,0.0,97,66.77,,,-99.99,,2013-03-30 10:23:00,
2013-03-30 05:32:00,32.0,31.0,30.16,North,0,0.0,0.0,97,66.77,,,-99.99,,2013-03-30 10:32:00,
2013-03-30 05:42:00,32.0,31.0,30.16,North,0,0.0,0.0,97,66.77,,,-99.99,,2013-03-30 10:42:00,
2013-03-30 05:52:00,32.0,31.0,30.15,North,0,0.0,0.0,97,66.77,,,-99.99,,2013-03-30 10:52:00,
2013-03-30 06:03:00,32.0,31.0,30.15,North,0,0.0,0.0,97,66.77,,,-99.99,,2013-03-30 11:03:00,
2013-03-30 06:12:00,32.0,31.0,30.15,North,0,0.0,0.0,97,66.77,,,-99.99,,2013-03-30 11:12:00,
2013-03-30 06:22:00,32.0,32.0,30.14,North,0,0.0,0.0,98,66.77,,,-99.99,,2013-03-30 11:22:00,
2013-03-30 06:32:00,32.0,32.0,30.14,North,0,0.0,0.0,98,66.77,,,-99.99,,2013-03-30 11:32:00,
2013-03-30 06:42:00,32.0,32.0,30.14,North,0,0.0,0.0,98,66.77,,,-99.99,,2013-03-30 11:42:00,
2013-03-30 06:53:00,31.0,31.0,30.13,North,0,0.0,0.0,98,66.77,,,-99.99,,2013-03-30 11:53:00,
2013-03-30 07:02:00,31.0,31.0,30.12,North,0,0.0,0.0,98,66.77,,,-99.99,,2013-03-30 12:02:00,
2013-03-30 07:12:00,31.0,31.0,30.12,North,0,0.0,0.0,98,66.77,,,-99.99,,2013-03-30 12:12:00,
2013-03-30 07:22:00,32.0,32.0,30.13,North,0,0.0,0.0,98,66.77,,,-99.99,,2013-03-30 12:22:00,
2013-03-30 07:32:00,33.0,32.0,30.14,North,0,0.0,0.0,98,66.77,,,-99.99,,2013-03-30 12:32:00,
2013-03-30 07:42:00,33.0,32.0,30.14,North,0,0.0,0.0,98,66.77,,,-99.99,,2013-03-30 12:42:00,
2013-03-30 07:53:00,34.0,34.0,30.14,North,0,0.0,0.0,98,66.77,,,-99.99,,2013-03-30 12:53:00,
2013-03-30 08:02:00,37.0,36.0,30.14,North,0,0.0,0.0,95,66.77,,,-99.99,,2013-03-30 13:02:00,
2013-03-30 08:12:00,37.0,36.0,30.14,North,0,0.0,0.0,95,66.77,,,-99.99,,2013-03-30 13:12:00,
2013-03-30 08:22:00,39.0,36.0,30.14,SSW,205,0.0,2.0,89,66.77,,,-99.99,,2013-03-30 13:22:00,
2013-03-30 08:32:00,41.0,37.0,30.14,West,278,1.0,5.0,87,66.77,,,-99.99,,2013-03-30 13:32:00,
2013-03-30 08:42:00,41.0,37.0,30.14,West,278,1.0,5.0,87,66.77,,,-99.99,,2013-03-30 13:42:00,
2013-03-30 08:52:00,42.0,38.0,30.13,SSW,208,1.0,5.0,84,66.77,,,-99.99,,2013-03-30 13:52:00,
2013-03-30 09:02:00,44.0,39.0,30.13,SSW,201,1.0,5.0,83,66.77,,,-99.99,,2013-03-30 14:02:00,
2013-03-30 09:11:00,44.0,39.0,30.13,SSW,201,1.0,5.0,83,66.77,,,-99.99,,2013-03-30 14:11:00,
2013-03-30 09:22:00,46.0,39.0,30.13,SW,229,1.0,3.0,77,66.77,,,-99.99,,2013-03-30 14:22:00,
2013-03-30 09:32:00,48.0,39.0,30.13,SSE,155,2.0,6.0,70,66.77,,,-99.99,,2013-03-30 14:32:00,
2013-03-30 09:42:00,48.0,39.0,30.13,SSE,155,2.0,6.0,70,66.77,,,-99.99,,2013-03-30 14:42:00,
2013-03-30 09:52:00,50.0,39.0,30.12,South,188,2.0,5.0,66,66.77,,,-99.99,,2013-03-30 14:52:00,
2013-03-30 10:02:00,51.0,39.0,30.12,SSW,211,2.0,5.0,63,66.77,,,-99.99,,2013-03-30 15:02:00,
2013-03-30 10:12:00,51.0,39.0,30.12,SSW,211,2.0,5.0,63,66.77,,,-99.99,,2013-03-30 15:12:00,
2013-03-30 10:22:00,52.0,38.0,30.12,SSW,200,2.0,7.0,59,66.77,,,-99.99,,2013-03-30 15:22:00,
2013-03-30 10:33:00,53.0,38.0,30.11,SW,224,3.0,7.0,57,66.77,,,-99.99,,2013-03-30 15:33:00,
2013-03-30 10:43:00,53.0,38.0,30.11,SW,224,3.0,7.0,57,66.77,,,-99.99,,2013-03-30 15:43:00,
2013-03-30 10:52:00,54.0,40.0,30.11,West,260,2.0,7.0,58,66.77,,,-99.99,,2013-03-30 15:52:00,
2013-03-30 11:03:00,54.0,39.0,30.11,WSW,253,2.0,11.0,56,66.77,,,-99.99,,2013-03-30 16:03:00,
2013-03-30 11:13:00,55.0,40.0,30.11,SW,222,2.0,6.0,56,66.77,,,-99.99,,2013-03-30 16:13:00,
2013-03-30 11:23:00,55.0,40.0,30.11,SW,222,2.0,6.0,56,66.77,,,-99.99,,2013-03-30 16:23:00,
2013-03-30 11:33:00,55.0,40.0,30.10,SW,233,1.0,3.0,56,66.77,,,-99.99,,2013-03-30 16:33:00,
2013-03-30 11:43:00,55.0,40.0,30.10,SW,233,1.0,3.0,56,66.77,,,-99.99,,2013-03-30 16:43:00,
2013-03-30 11:52:00,56.0,39.0,30.09,South,188,2.0,11.0,52,66.77,,,-99.99,,2013-03-30 16:52:00,
2013-03-30 12:02:00,56.0,38.0,30.09,WSW,239,2.0,7.0,51,66.77,,,-99.99,,2013-03-30 17:02:00,
2013-03-30 12:13:00,56.0,38.0,30.09,WSW,239,2.0,7.0,51,66.77,,,-99.99,,2013-03-30 17:13:00,
2013-03-30 12:22:00,57.0,38.0,30.08,South,184,2.0,6.0,49,66.77,,,-99.99,,2013-03-30 17:22:00,
2013-03-30 12:32:00,58.0,39.0,30.07,WSW,248,1.0,6.0,49,66.77,,,-99.99,,2013-03-30 17:32:00,
2013-03-30 12:42:00,58.0,39.0,30.07,WSW,248,1.0,6.0,49,66.77,,,-99.99,,2013-03-30 17:42:00,
2013-03-30 12:52:00,58.0,38.0,30.07,NW,314,1.0,7.0,48,66.77,,,-99.99,,2013-03-30 17:52:00,
2013-03-30 13:02:00,58.0,38.0,30.06,SW,236,2.0,8.0,48,66.77,,,-99.99,,2013-03-30 18:02:00,
2013-03-30 13:12:00,59.0,39.0,30.04,WNW,283,2.0,6.0,48,66.77,,,-99.99,,2013-03-30 18:12:00,
2013-03-30 13:22:00,59.0,39.0,30.04,WNW,283,2.0,6.0,48,66.77,,,-99.99,,2013-03-30 18:22:00,
2013-03-30 13:32:00,59.0,38.0,30.03,WNW,290,3.0,8.0,45,66.77,,,-99.99,,2013-03-30 18:32:00,
2013-03-30 13:42:00,59.0,38.0,30.03,WNW,290,3.0,8.0,45,66.77,,,-99.99,,2013-03-30 18:42:00,
2013-03-30 13:53:00,59.0,38.0,30.03,SSW,195,2.0,6.0,46,66.77,,,-99.99,,2013-03-30 18:53:00,
2013-03-30 14:02:00,59.0,38.0,30.03,South,169,2.0,7.0,46,66.77,,,-99.99,,2013-03-30 19:02:00,
2013-03-30 14:13:00,59.0,38.0,30.03,South,169,2.0,7.0,46,66.77,,,-99.99,,2013-03-30 19:13:00,
2013-03-30 14:22:00,58.0,37.0,30.02,SSW,207,2.0,7.0,46,66.77,,,-99.99,,2013-03-30 19:22:00,
2013-03-30 14:32:00,58.0,38.0,30.01,West,280,1.0,6.0,48,66.77,,,-99.99,,2013-03-30 19:32:00,
2013-03-30 14:42:00,58.0,38.0,30.01,West,280,1.0,6.0,48,66.77,,,-99.99,,2013-03-30 19:42:00,
2013-03-30 14:53:00,58.0,38.0,30.00,West,276,2.0,7.0,47,66.77,,,-99.99,,2013-03-30 19:53:00,
2013-03-30 15:02:00,58.0,39.0,30.00,SSW,203,1.0,5.0,49,66.77,,,-99.99,,2013-03-30 20:02:00,
2013-03-30 15:12:00,58.0,39.0,30.00,SSW,203,1.0,5.0,49,66.77,,,-99.99,,2013-03-30 20:12:00,
2013-03-30 15:22:00,57.0,39.0,29.99,NW,308,0.0,3.0,50,66.77,,,-99.99,,2013-03-30 20:22:00,
2013-03-30 15:32:00,57.0,38.0,29.98,SW,228,2.0,9.0,49,66.77,,,-99.99,,2013-03-30 20:32:00,
2013-03-30 15:42:00,57.0,38.0,29.98,SW,228,2.0,9.0,49,66.77,,,-99.99,,2013-03-30 20:42:00,
2013-03-30 15:53:00,56.0,37.0,29.98,West,270,2.0,6.0,49,66.77,,,-99.99,,2013-03-30 20:53:00,
2013-03-30 16:02:00,56.0,37.0,29.98,SW,233,1.0,7.0,48,66.77,,,-99.99,,2013-03-30 21:02:00,
2013-03-30 16:12:00,56.0,37.0,29.98,SW,233,1.0,7.0,48,66.77,,,-99.99,,2013-03-30 21:12:00,
2013-03-30 16:22:00,56.0,37.0,29.97,West,270,2.0,8.0,49,66.77,,,-99.99,,2013-03-30 21:22:00,
2013-03-30 16:33:00,55.0,38.0,29.97,West,264,2.0,7.0,52,66.77,,,-99.99,,2013-03-30 21:33:00,
2013-03-30 16:43:00,55.0,38.0,29.97,West,264,2.0,7.0,52,66.77,,,-99.99,,2013-03-30 21:43:00,
2013-03-30 16:53:00,55.0,37.0,29.96,WSW,250,2.0,8.0,51,66.77,,,-99.99,,2013-03-30 21:53:00,
2013-03-30 17:02:00,55.0,38.0,29.95,WSW,242,1.0,3.0,53,66.77,,,-99.99,,2013-03-30 22:02:00,
2013-03-30 17:13:00,55.0,38.0,29.95,WSW,242,1.0,3.0,53,66.77,,,-99.99,,2013-03-30 22:13:00,
2013-03-30 17:23:00,55.0,39.0,29.95,SW,233,1.0,6.0,55,66.77,,,-99.99,,2013-03-30 22:23:00,
2013-03-30 17:33:00,55.0,40.0,29.94,South,184,0.0,4.0,56,66.77,,,-99.99,,2013-03-30 22:33:00,
2013-03-30 17:43:00,55.0,40.0,29.94,South,184,0.0,4.0,56,66.77,,,-99.99,,2013-03-30 22:43:00,
2013-03-30 17:53:00,55.0,41.0,29.94,SSW,194,0.0,2.0,58,66.77,,,-99.99,,2013-03-30 22:53:00,
2013-03-30 18:02:00,55.0,41.0,29.94,West,273,0.0,1.0,59,66.77,,,-99.99,,2013-03-30 23:02:00,
2013-03-30 18:12:00,55.0,41.0,29.94,West,273,0.0,1.0,59,66.77,,,-99.99,,2013-03-30 23:12:00,
2013-03-30 18:22:00,54.0,40.0,29.93,NW,304,1.0,5.0,59,66.77,,,-99.99,,2013-03-30 23:22:00,
2013-03-30 18:32:00,54.0,40.0,29.92,WSW,239,1.0,5.0,60,66.77,,,-99.99,,2013-03-30 23:32:00,
2013-03-30 18:42:00,54.0,40.0,29.92,WSW,239,1.0,5.0,60,66.77,,,-99.99,,2013-03-30 23:42:00,
2013-03-30 18:53:00,54.0,40.0,29.91,SW,219,1.0,6.0,60,66.77,,,-99.99,,2013-03-30 23:53:00,
2013-03-30 19:02:00,54.0,41.0,29.90,WSW,246,1.0,4.0,62,66.77,,,-99.99,,2013-03-31 00:02:00,
2013-03-30 19:12:00,54.0,41.0,29.90,WSW,246,1.0,4.0,62,66.77,,,-99.99,,2013-03-31 00:12:00,
2013-03-30 19:22:00,53.0,42.0,29.90,SW,219,0.0,1.0,65,66.77,,,-99.99,,2013-03-31 00:22:00,
2013-03-30 19:32:00,52.0,41.0,29.90,North,0,0.0,0.0,66,66.77,,,-99.99,,2013-03-31 00:32:00,
2013-03-30 19:42:00,52.0,41.0,29.90,North,0,0.0,0.0,66,66.77,,,-99.99,,2013-03-31 00:42:00,
2013-03-30 19:53:00,52.0,42.0,29.90,WNW,288,0.0,1.0,69,66.77,,,-99.99,,2013-03-31 00:53:00,
2013-03-30 20:02:00,52.0,42.0,29.90,West,264,0.0,1.0,69,66.77,,,-99.99,,2013-03-31 01:02:00,
2013-03-30 20:12:00,52.0,42.0,29.90,West,264,0.0,1.0,69,66.77,,,-99.99,,2013-03-31 01:12:00,
2013-03-30 20:22:00,51.0,42.0,29.89,North,0,0.0,0.0,70,66.77,,,-99.99,,2013-03-31 01:22:00,
2013-03-30 20:32:00,51.0,42.0,29.89,North,0,0.0,0.0,72,66.77,,,-99.99,,2013-03-31 01:32:00,
2013-03-30 20:42:00,51.0,42.0,29.89,North,0,0.0,0.0,72,66.77,,,-99.99,,2013-03-31 01:42:00,
2013-03-30 20:53:00,50.0,42.0,29.89,North,0,0.0,0.0,73,66.77,,,-99.99,,2013-03-31 01:53:00,
2013-03-30 21:02:00,49.0,41.0,29.89,North,0,0.0,0.0,75,66.77,,,-99.99,,2013-03-31 02:02:00,
2013-03-30 21:12:00,49.0,41.0,29.89,North,0,0.0,0.0,75,66.77,,,-99.99,,2013-03-31 02:12:00,
2013-03-30 21:22:00,49.0,42.0,29.89,North,0,0.0,0.0,76,66.77,,,-99.99,,2013-03-31 02:22:00,
2013-03-30 21:32:00,48.0,41.0,29.89,North,0,0.0,0.0,77,66.77,,,-99.99,,2013-03-31 02:32:00,
2013-03-30 21:42:00,48.0,41.0,29.89,North,0,0.0,0.0,77,66.77,,,-99.99,,2013-03-31 02:42:00,
2013-03-30 21:52:00,48.0,41.0,29.89,North,0,0.0,0.0,78,66.77,,,-99.99,,2013-03-31 02:52:00,
2013-03-30 22:02:00,48.0,42.0,29.89,North,0,0.0,0.0,79,66.77,,,-99.99,,2013-03-31 03:02:00,
2013-03-30 22:12:00,48.0,42.0,29.89,North,0,0.0,0.0,79,66.77,,,-99.99,,2013-03-31 03:12:00,
2013-03-30 22:22:00,47.0,41.0,29.89,North,0,0.0,0.0,81,66.77,,,-99.99,,2013-03-31 03:22:00,
2013-03-30 22:33:00,47.0,41.0,29.89,North,0,0.0,0.0,81,66.77,,,-99.99,,2013-03-31 03:33:00,
2013-03-30 22:43:00,47.0,41.0,29.89,North,0,0.0,0.0,81,66.77,,,-99.99,,2013-03-31 03:43:00,
2013-03-30 22:54:00,47.0,41.0,29.88,North,0,0.0,0.0,81,66.77,,,-99.99,,2013-03-31 03:54:00,
2013-03-30 23:02:00,48.0,-99.9,29.88,North,0,0.0,0.0,79,66.77,,,-99.99,,2013-03-31 04:02:00,
2013-03-30 23:13:00,48.0,42.0,29.88,North,0,0.0,0.0,79,66.77,,,-99.99,,2013-03-31 04:13:00,
2013-03-30 23:23:00,48.0,41.0,29.87,East,90,0.0,2.0,77,66.77,,,-99.99,,2013-03-31 04:23:00,
2013-03-30 23:42:00,48.0,41.0,29.86,North,0,0.0,0.0,78,66.77,,,-99.99,,2013-03-31 04:42:00,
2013-03-30 23:52:00,48.0,42.0,29.85,SW,228,0.0,4.0,79,66.77,,,-99.99,,2013-03-31 04:52:00,